Wind_Speed
6 4 1 1 0 1 2 3 5 6 5 5 6 4 2 2 2 9 5 21 17 10 9 9 10 10 10 11 12 13 12 13 13 13 12 13 12 13 12 12 12 12 13
6 5 3 2 1 1 3 3 5 6 6 5 5 4 2 4 8 9 17 18 19 11 11 10 11 12 12 13 14 12 12 13 14 14 13 13 12 13 12 12 11 11 11
8 5 4 4 4 4 3 3 3 5 5 6 4 2 2 4 5 7 2 14 13 11 12 12 12 12 13 14 15 13 13 12 13 13 13 13 12 12 13 12 11 9 10
9 7 6 5 5 5 4 4 3 4 6 6 5 3 2 3 3 2 5 17 9 11 11 12 12 13 14 15 15 14 13 12 12 12 12 13 12 11 11 12 11 10 9
11 9 8 7 6 6 4 3 4 4 5 5 4 3 2 3 4 4 7 9 7 12 11 12 12 13 14 15 15 15 13 12 12 13 11 11 13 12 11 12 11 11 11
13 11 9 8 7 6 5 4 4 3 4 5 4 3 4 3 3 4 4 6 9 7 18 13 13 12 13 14 14 13 13 13 11 12 11 11 11 10 9 9 9 10 10
16 15 12 10 7 6 5 5 5 6 6 6 6 5 5 5 5 4 5 6 8 6 25 18 14 14 13 14 14 13 12 11 9 10 9 10 9 8 7 7 7 8 9
19 16 14 12 9 8 8 7 7 7 7 7 5 5 5 6 6 6 5 5 6 9 19 21 16 16 14 13 12 13 12 10 7 6 6 7 7 6 6 5 5 5 5
18 16 14 13 12 11 10 9 9 9 8 8 6 6 5 5 6 6 6 7 6 4 8 12 18 19 17 14 13 13 13 11 9 8 5 4 3 4 3 4 3 4 3
20 19 18 16 17 15 12 10 10 11 10 9 9 8 9 11 9 8 7 7 6 8 8 7 8 14 17 15 15 14 14 12 10 8 6 5 3 1 1 0 1 3 3
25 22 19 18 17 20 14 12 11 11 12 12 10 12 13 10 11 9 6 7 7 7 7 8 9 12 11 16 18 18 17 14 12 11 9 7 5 4 3 3 4 3 4
23 24 25 24 23 23 15 11 12 13 12 14 12 13 14 14 15 14 9 8 6 6 7 8 10 11 13 11 10 17 20 18 15 14 13 11 9 9 8 7 7 7 6
22 23 23 24 24 21 14 18 8 12 13 15 15 15 13 18 24 10 6 9 8 7 9 10 8 6 10 11 9 15 17 20 17 15 14 14 14 13 13 13 12 11 9
28 27 23 15 23 19 16 9 9 14 12 18 13 12 12 13 19 5 8 11 14 12 12 10 8 7 7 9 11 11 15 16 19 16 17 16 16 16 17 16 15 14 14
34 32 31 21 22 15 14 13 14 12 8 11 10 10 14 17 16 15 10 4 6 16 17 14 5 6 10 8 10 11 14 15 16 15 16 18 18 18 20 20 19 17 17
29 22 23 12 18 9 9 10 10 9 9 13 11 12 18 21 15 16 9 10 12 18 16 14 10 16 8 6 10 11 13 16 17 17 17 18 18 18 20 22 21 21 20
33 7 22 18 21 17 3 5 5 11 10 12 10 11 21 18 14 12 9 11 11 15 15 11 9 8 7 10 14 14 14 14 14 15 14 16 18 18 20 21 23 23 23
28 31 25 15 21 5 3 7 8 7 11 16 13 13 18 18 13 10 11 7 6 13 7 7 7 6 6 9 10 11 14 15 16 16 17 17 17 17 17 19 20 22 24
24 35 35 18 6 6 7 10 11 12 10 11 17 14 16 15 11 8 7 6 7 5 2 8 6 7 9 11 13 14 14 14 16 17 18 20 19 19 21 22 22 24 26
43 41 31 22 14 14 12 10 11 14 12 12 15 14 14 13 11 9 8 7 5 5 6 6 8 9 11 11 13 13 14 16 19 18 20 21 20 20 20 22 22 20 26
41 39 32 23 21 18 18 17 17 16 8 8 22 19 15 14 13 11 10 9 6 6 7 8 9 11 12 11 12 11 12 14 17 19 21 21 21 22 24 23 24 24 26
37 37 37 25 24 21 16 15 19 18 8 12 9 18 14 17 14 11 8 8 4 6 7 7 7 8 9 11 11 12 12 13 15 17 18 18 20 20 23 24 21 24 22
33 33 31 23 24 25 21 18 16 17 12 12 14 15 13 11 14 13 10 7 4 6 5 6 7 8 9 10 11 14 14 14 14 16 17 18 19 18 21 20 18 20 23
32 34 28 20 17 21 24 20 14 14 14 10 10 15 15 15 18 13 9 6 5 6 5 5 6 6 8 11 13 13 14 14 15 16 19 12 19 17 21 18 18 15 22
31 30 26 24 19 23 23 20 19 15 15 10 11 21 19 26 19 12 9 6 5 6 6 6 5 6 8 9 11 12 12 13 13 13 16 19 19 21 18 18 16 16 17
29 31 25 23 16 17 21 21 19 15 12 10 8 10 25 18 12 8 8 7 6 6 6 5 4 7 7 8 9 9 9 9 10 9 12 14 13 24 17 14 14 16 17
Wind_Direction
323 342 30 296 144 184 266 256 257 258 247 230 213 197 121 69 308 336 218 169 162 155 148 141 142 147 136 132 126 121 124 121 115 110 108 101 99 91 86 86 88 82 83
340 356 336 333 331 304 291 273 260 250 247 245 227 196 144 59 37 6 156 150 140 152 146 143 144 144 139 132 124 126 127 121 111 103 103 101 101 92 83 86 89 86 83
354 349 340 346 352 332 324 298 262 255 255 241 223 210 118 85 85 86 56 155 148 156 148 146 144 144 140 135 128 127 119 114 109 101 99 102 100 96 89 81 81 86 81
360 344 343 347 344 344 353 328 308 287 269 259 249 230 188 122 136 141 89 142 173 169 157 145 145 147 141 136 132 127 119 116 107 98 97 95 98 95 91 85 77 81 77
4 355 353 344 348 357 349 341 315 314 290 269 245 206 199 165 157 159 123 132 149 185 170 156 153 147 142 142 142 133 127 114 104 100 93 94 93 96 94 92 84 75 72
17 1 352 342 345 348 344 326 313 296 278 273 267 195 197 183 170 143 130 122 135 181 181 171 160 153 151 148 145 141 131 122 116 101 90 86 81 86 85 87 86 83 74
14 13 359 345 333 327 323 315 307 292 277 268 267 249 206 193 193 176 143 121 118 76 183 176 170 168 166 162 159 150 143 138 129 118 105 94 84 78 79 76 77 81 80
23 21 17 5 347 327 315 308 303 291 285 279 281 276 252 210 216 214 201 164 131 115 168 176 187 179 181 183 176 168 166 162 151 122 115 100 83 72 63 67 61 62 64
22 24 18 11 3 351 322 307 291 285 283 279 267 262 260 241 198 202 208 205 191 180 159 184 201 207 194 190 195 190 184 182 179 166 145 125 109 86 70 52 37 41 46
16 10 10 5 4 351 333 310 293 274 269 269 264 248 239 228 204 188 191 186 185 198 207 203 123 185 204 204 204 207 202 198 196 188 183 180 176 175 126 24 329 343 343
9 6 10 0 353 346 331 308 302 281 262 254 251 259 248 244 231 197 214 206 189 193 202 198 185 183 190 198 210 219 215 211 210 207 199 202 216 233 238 241 249 263 297
351 355 358 356 352 352 339 305 285 286 276 254 239 241 252 242 237 191 192 223 211 204 211 207 196 196 196 204 211 221 220 215 210 211 221 222 222 233 239 245 252 262 269
346 352 349 348 344 357 314 284 279 270 284 261 236 235 244 248 252 205 193 226 217 214 220 215 197 212 207 202 222 222 220 223 224 225 227 226 233 236 242 244 251 259 264
335 334 335 343 356 6 335 318 302 259 263 250 239 246 241 255 278 239 238 208 215 224 223 227 205 192 218 214 222 215 212 216 223 229 241 240 245 250 253 250 251 258 267
326 321 324 315 339 355 333 304 295 269 294 272 250 251 245 232 229 231 247 262 222 224 214 223 200 265 170 229 225 226 224 225 229 225 237 247 250 251 256 261 259 257 260
288 298 291 336 350 330 329 326 323 306 313 292 257 252 247 226 224 231 231 230 212 210 207 216 223 227 246 234 245 239 232 236 238 242 246 250 250 254 255 260 261 265 268
340 245 310 285 316 284 266 349 326 302 298 291 254 230 218 214 217 233 219 217 214 208 153 196 219 225 242 247 248 244 243 245 247 253 252 255 261 261 260 258 262 267 268
351 5 330 290 302 216 68 352 334 308 294 226 223 186 194 206 224 215 206 188 232 233 200 197 202 221 245 262 261 256 252 256 258 256 257 252 253 262 263 260 263 265 269
8 8 13 34 46 32 9 355 335 314 284 227 209 223 200 202 212 229 219 197 199 245 121 216 212 239 264 261 255 255 252 253 253 256 256 256 252 252 263 263 263 265 268
15 357 15 1 11 3 6 357 325 325 283 220 211 217 204 201 204 217 220 218 227 246 249 246 254 253 261 260 256 257 259 259 262 264 266 265 266 262 258 259 260 260 274
352 350 356 354 10 8 7 349 347 346 305 276 213 221 220 219 208 205 215 220 216 238 246 250 253 256 257 249 257 261 261 268 267 266 267 267 269 267 266 261 261 267 270
343 348 350 348 9 7 4 355 357 351 288 210 213 209 228 231 201 199 196 206 193 249 250 254 250 246 252 262 269 272 272 270 268 266 267 267 274 270 270 278 273 269 280
349 350 350 349 0 357 357 358 356 354 312 271 239 215 236 218 204 194 192 189 222 244 238 230 233 245 260 273 278 280 282 278 271 270 267 271 271 277 276 268 280 280 271
354 355 359 349 348 357 354 352 343 350 347 296 266 236 228 223 196 196 195 205 246 236 228 240 246 261 280 286 289 288 285 281 275 267 262 267 266 248 270 285 274 275 277
353 357 5 0 350 346 351 342 342 335 352 328 246 223 238 229 186 193 200 221 241 223 228 229 242 267 274 285 295 297 294 288 278 265 258 261 254 262 264 275 278 269 279
351 357 2 356 349 338 337 341 337 339 333 342 343 272 224 214 172 194 209 220 228 213 213 221 249 276 288 309 311 311 304 296 282 277 273 265 246 260 264 281 283 283 277
Height
5896 5895 5894 5895 5896 5896 5896 5896 5895 5895 5895 5895 5895 5896 5896 5897 5897 5895 5894 5897 5899 5901 5902 5902 5903 5904 5904 5905 5906 5906 5908 5908 5909 5910 5911 5911 5912 5912 5912 5912 5913 5913 5913
5896 5895 5896 5896 5896 5896 5896 5896 5895 5895 5895 5896 5896 5897 5897 5897 5897 5895 5895 5897 5898 5901 5902 5903 5904 5905 5906 5907 5908 5909 5910 5910 5911 5912 5913 5913 5914 5914 5914 5915 5916 5916 5916
5896 5897 5897 5896 5896 5897 5896 5896 5896 5896 5895 5896 5898 5898 5898 5898 5897 5900 5900 5901 5902 5902 5903 5904 5905 5907 5907 5908 5909 5911 5912 5913 5913 5914 5915 5915 5916 5916 5917 5918 5918 5918 5918
5898 5898 5897 5897 5897 5897 5896 5897 5896 5896 5896 5896 5898 5899 5899 5899 5899 5899 5902 5905 5905 5905 5906 5906 5907 5908 5909 5910 5911 5913 5914 5915 5915 5916 5917 5917 5917 5919 5919 5920 5921 5921 5920
5899 5899 5898 5898 5897 5896 5897 5896 5896 5896 5896 5896 5897 5899 5899 5901 5901 5901 5902 5903 5905 5906 5907 5908 5909 5910 5910 5911 5913 5914 5915 5917 5918 5918 5919 5920 5919 5921 5921 5922 5922 5923 5922
5901 5900 5898 5898 5896 5896 5896 5896 5896 5896 5896 5896 5896 5899 5900 5901 5901 5903 5902 5903 5904 5905 5907 5909 5910 5911 5912 5913 5914 5916 5917 5918 5919 5920 5921 5922 5922 5922 5923 5923 5923 5923 5924
5901 5900 5899 5898 5897 5896 5896 5895 5895 5896 5896 5896 5897 5897 5899 5902 5903 5903 5903 5903 5904 5904 5906 5908 5910 5912 5914 5915 5916 5917 5918 5920 5921 5922 5923 5923 5924 5924 5925 5925 5925 5925 5925
5904 5901 5899 5898 5897 5896 5896 5895 5895 5895 5895 5897 5897 5898 5898 5900 5902 5902 5903 5904 5905 5905 5908 5909 5910 5911 5914 5916 5917 5917 5919 5920 5922 5924 5923 5924 5925 5926 5926 5927 5927 5927 5927
5904 5901 5900 5899 5897 5896 5895 5895 5895 5895 5895 5896 5897 5898 5899 5898 5900 5900 5902 5904 5905 5906 5908 5910 5910 5912 5913 5915 5917 5918 5919 5920 5922 5923 5925 5925 5926 5927 5927 5928 5928 5928 5928
5906 5903 5900 5899 5897 5896 5895 5894 5893 5893 5894 5894 5895 5896 5895 5894 5896 5898 5898 5899 5902 5904 5906 5908 5909 5910 5912 5915 5917 5918 5919 5920 5922 5923 5925 5925 5926 5927 5928 5928 5929 5929 5929
5906 5902 5900 5898 5896 5894 5893 5894 5892 5890 5890 5890 5892 5892 5894 5898 5896 5896 5898 5898 5899 5903 5905 5907 5909 5910 5911 5912 5915 5916 5918 5920 5922 5923 5924 5925 5926 5927 5927 5928 5928 5929 5929
5906 5902 5901 5897 5895 5893 5892 5889 5890 5891 5890 5888 5889 5884 5892 5894 5896 5895 5894 5900 5901 5903 5905 5905 5905 5907 5910 5912 5912 5914 5917 5918 5919 5921 5923 5923 5925 5926 5927 5927 5927 5927 5928
5903 5901 5898 5895 5892 5891 5887 5885 5884 5887 5888 5887 5887 5883 5887 5893 5888 5880 5892 5900 5900 5902 5904 5903 5904 5907 5907 5909 5912 5912 5915 5918 5918 5920 5921 5922 5923 5924 5925 5925 5925 5926 5926
5899 5896 5895 5891 5888 5888 5883 5879 5882 5884 5885 5887 5890 5883 5884 5888 5887 5889 5891 5895 5895 5900 5901 5901 5904 5905 5908 5908 5910 5911 5912 5914 5916 5918 5919 5920 5921 5922 5923 5923 5923 5923 5923
5896 5891 5888 5885 5883 5883 5884 5883 5883 5883 5878 5879 5881 5883 5886 5891 5895 5893 5891 5891 5895 5899 5899 5898 5903 5901 5904 5905 5909 5910 5912 5913 5913 5915 5915 5917 5919 5919 5920 5920 5921 5921 5920
5876 5875 5876 5880 5880 5878 5881 5883 5878 5877 5876 5877 5877 5877 5884 5892 5895 5891 5889 5891 5895 5892 5895 5897 5898 5900 5901 5901 5907 5909 5910 5911 5911 5912 5914 5914 5915 5915 5916 5917 5918 5918 5918
5855 5866 5873 5875 5876 5876 5874 5878 5879 5877 5875 5874 5877 5878 5881 5887 5887 5888 5889 5894 5891 5893 5892 5894 5896 5898 5898 5903 5905 5905 5907 5907 5908 5908 5910 5911 5911 5912 5912 5913 5914 5914 5914
5896 5896 5882 5876 5876 5874 5873 5875 5875 5877 5877 5876 5878 5879 5881 5886 5887 5888 5890 5890 5887 5892 5891 5891 5894 5896 5900 5901 5901 5902 5903 5904 5904 5905 5905 5906 5907 5907 5908 5908 5908 5909 5909
5891 5891 5879 5876 5877 5873 5871 5870 5872 5874 5874 5873 5875 5878 5879 5882 5884 5884 5886 5889 5891 5890 5886 5892 5892 5895 5896 5898 5899 5899 5899 5900 5900 5900 5901 5901 5903 5903 5903 5903 5903 5900 5901
5881 5890 5881 5886 5879 5874 5870 5869 5870 5869 5870 5871 5874 5876 5877 5879 5881 5880 5882 5884 5886 5887 5888 5889 5891 5893 5894 5895 5896 5896 5896 5896 5896 5896 5896 5896 5897 5898 5898 5896 5897 5890 5895
5891 5893 5893 5889 5879 5875 5869 5870 5868 5865 5866 5867 5871 5873 5875 5877 5878 5879 5880 5881 5883 5885 5886 5887 5889 5891 5892 5893 5893 5893 5893 5893 5893 5892 5892 5893 5893 5892 5891 5892 5891 5893 5894
5900 5897 5890 5884 5878 5875 5874 5872 5868 5866 5868 5867 5867 5869 5872 5874 5876 5878 5880 5881 5882 5883 5884 5886 5887 5889 5889 5889 5889 5890 5889 5891 5889 5888 5888 5886 5888 5889 5887 5887 5891 5890 5890
5902 5898 5890 5884 5879 5879 5875 5872 5870 5871 5869 5868 5869 5869 5870 5872 5874 5876 5877 5879 5881 5882 5883 5884 5885 5886 5886 5886 5886 5886 5885 5885 5885 5884 5884 5883 5884 5883 5885 5889 5887 5887 5884
5901 5895 5889 5884 5881 5878 5875 5872 5871 5871 5871 5868 5867 5868 5869 5872 5873 5874 5875 5877 5878 5879 5880 5881 5882 5883 5883 5882 5882 5882 5881 5881 5881 5881 5862 5875 5879 5879 5880 5875 5883 5883 5877
5900 5894 5888 5884 5880 5879 5877 5875 5872 5870 5868 5868 5868 5865 5867 5869 5868 5871 5874 5875 5876 5877 5878 5879 5880 5881 5880 5880 5879 5879 5878 5877 5876 5876 5876 5876 5875 5875 5877 5878 5879 5880 5876
5899 5893 5888 5884 5881 5878 5876 5876 5873 5871 5869 5868 5866 5865 5864 5865 5866 5870 5872 5873 5875 5876 5876 5877 5877 5878 5878 5876 5876 5876 5875 5874 5874 5873 5872 5871 5872 5872 5873 5872 5874 5874 5874